Tracking 23732 objects as of 28-Sep-2021
HD Live streaming from Space Station
objects crossing your sky now

OPS 8068

Track OPS 8068 now!
10-day predictions
OPS 8068 is classified as:


NORAD ID: 1580
Int'l Code: 1965-072A
Perigee: 637.6 km
Apogee: 976.0 km
Inclination: 98.3 °
Period: 100.9 minutes
Semi major axis: 7177 km
RCS: 0.631 m2 (medium)
Launch date: September 10, 1965
Source: United States (US)
Launch site: AIR FORCE WESTERN TEST RANGE (AFWTR)
aabbcc
Your satellite tracking list
Your tracking list is empty




NASA's NSSDC Master Catalog

Two Line Element Set (TLE):
1 01580U 65072A   21270.80954161  .00000041  00000-0  26080-4 0  9995
2 01580  98.3492 113.0601 0235686  97.3146 265.4887 14.27633061887021
Source of the keplerian elements: AFSPC